E1763 Weather Reports


time (UTC)temp
C
wind
direction
speed
KPH
gust
KPH
rain 1hr
cm
rain 24hr
cm
rain mn
cm
humidity
%
barometer
mb
20260906011510 20 340 0.0 0.0 0.00 0.03 0.03 60 1009.2
20260906010010 20 15 0.0 0.0 0.00 0.03 0.03 58 1009.1
20260906004507 21 15 0.0 0.0 0.00 0.03 0.03 60 1009.1
20260906003006 21 355 0.0 0.0 0.00 0.03 0.03 57 1009.1
20260906001604 22 241 0.0 0.0 0.00 0.03 0.03 57 1009.1
20260906000006 22 214 0.0 0.0 0.00 0.03 0.03 57 1009.0
20260905234504 21 255 0.0 0.0 0.00 0.03 0.03 56 1009.1
20260905233002 21 213 0.0 0.0 0.00 0.03 0.03 57 1009.0
20260905231502 21 244 0.0 0.0 0.00 0.03 0.03 59 1009.2
20260905230001 22 202 0.0 0.0 0.00 0.03 0.03 59 1009.3
20260905224606 23 233 0.0 0.0 0.00 0.03 0.03 59 1009.3
20260905223059 23 169 0.0 0.0 0.00 0.03 0.03 58 1009.4
20260905221600 23 261 0.0 0.0 0.00 0.03 0.03 57 1009.4
20260905220057 23 213 0.0 0.0 0.00 0.03 0.03 58 1009.3
20260905214605 23 217 0.0 0.0 0.00 0.03 0.03 56 1009.3
20260905213053 23 241 0.0 6.4 0.00 0.03 0.03 56 1009.2
20260905211551 23 261 0.0 9.7 0.00 0.03 0.03 58 1009.2
20260905210050 23 286 0.0 11.3 0.00 0.03 0.03 58 1009.2
20260905204548 23 243 0.0 0.0 0.00 0.03 0.03 60 1009.2
20260905203045 23 234 1.6 8.0 0.00 0.03 0.03 58 1009.2
20260905201542 23 222 0.0 0.0 0.00 0.03 0.03 63 1009.2
20260905200045 23 191 0.0 0.0 0.00 0.03 0.03 57 1009.3
20260905194534 21 221 0.0 0.0 0.00 0.03 0.03 66 1009.3
20260905193032 21 229 0.0 1.6 0.00 0.03 0.03 67 1009.4
20260905191531 21 262 0.0 0.0 0.00 0.03 0.03 68 1009.6
20260905190029 21 255 0.0 0.0 0.00 0.03 0.03 71 1009.6
20260905184532 19 191 0.0 1.6 0.00 0.03 0.03 77 1009.7
20260905183026 18 189 0.0 0.0 0.00 0.03 0.03 84 1009.9
20260905181517 17 190 0.0 0.0 0.00 0.03 0.03 88 1009.9
20260905180015 16 180 0.0 1.6 0.00 0.03 0.03 93 1009.9
20260905174525 15 271 0.0 0.0 0.00 0.03 0.03 96 1009.9
20260905173006 14 225 0.0 0.0 0.00 0.03 0.03 97 1009.9
20260905171506 13 206 0.0 0.0 0.00 0.03 0.03 97 1009.9
20260905170004 13 206 0.0 0.0 0.00 0.03 0.03 97 1009.9
20260905164503 12 233 0.0 0.0 0.00 0.03 0.03 96 1009.9
20260905163004 12 190 0.0 0.0 0.00 0.03 0.03 96 1009.8
20260905161502 12 28 0.0 0.0 0.00 0.03 0.03 96 1009.8
20260905160002 12 28 0.0 0.0 0.00 0.03 0.03 96 1009.9
20260905154502 11 28 0.0 0.0 0.00 0.03 0.03 96 1009.9
20260905153000 11 28 0.0 0.0 0.00 0.03 0.03 96 1009.8
20260905151600 11 28 0.0 0.0 0.00 0.03 0.03 96 1009.7
20260905150101 11 54 0.0 0.0 0.00 0.03 0.03 96 1009.6
20260905144558 11 52 0.0 0.0 0.00 0.03 0.03 96 1009.5
20260905143058 11 47 0.0 0.0 0.00 0.03 0.03 96 1009.6
20260905141612 11 32 0.0 0.0 0.00 0.03 0.03 96 1009.4
20260905134606 10 32 0.0 0.0 0.00 0.03 0.03 96 1009.3
20260905133058 10 32 0.0 0.0 0.00 0.03 0.03 96 1009.2
20260905131558 11 32 0.0 0.0 0.00 0.03 0.03 96 1009.2
20260905130057 11 32 0.0 0.0 0.00 0.03 0.03 96 1009.1
20260905124551 11 32 0.0 0.0 0.00 0.03 0.03 96 1009.1
20260905123055 11 32 0.0 0.0 0.00 0.03 0.03 96 1009.3
20260905121549 11 38 0.0 0.0 0.00 0.03 0.03 96 1009.2
20260905120147 11 46 0.0 0.0 0.00 0.03 0.03 96 1009.3
20260905114621 11 26 0.0 0.0 0.03 0.03 0.03 95 1009.3
20260905113044 10 49 0.0 0.0 0.03 0.03 0.03 95 1009.3
20260905111550 10 36 0.0 0.0 0.03 0.03 0.03 95 1009.4
20260905110042 10 58 0.0 0.0 0.03 0.03 0.03 95 1009.4
20260905104539 10 24 0.0 0.0 0.00 0.00 0.00 95 1009.5
20260905103038 10 24 0.0 0.0 0.00 0.00 0.00 95 1009.7
20260905101536 11 24 0.0 0.0 0.00 0.00 0.00 95 1009.9
20260905100040 11 24 0.0 0.0 0.00 0.00 0.00 95 1009.8
20260905094533 11 24 0.0 0.0 0.00 0.00 0.00 95 1009.8
20260905093032 11 24 0.0 0.0 0.00 0.00 0.00 94 1009.9
20260905091528 11 24 0.0 0.0 0.00 0.00 0.00 94 1010.0
20260905090027 12 24 0.0 0.0 0.00 0.00 0.00 94 1010.2
20260905084523 12 319 0.0 0.0 0.00 0.00 0.00 94 1010.0
20260905083022 13 319 0.0 0.0 0.00 0.00 0.00 94 1010.1
20260905081520 13 319 0.0 0.0 0.00 0.00 0.00 94 1010.0
20260905080022 13 319 0.0 0.0 0.00 0.00 0.00 94 1010.0
20260905074519 13 319 0.0 0.0 0.00 0.00 0.00 94 1010.0
20260905073021 13 319 0.0 0.0 0.00 0.00 0.00 94 1010.1
20260905071515 13 319 0.0 0.0 0.00 0.00 0.00 94 1010.2
20260905070012 13 319 0.0 0.0 0.00 0.00 0.00 94 1010.1
20260905064514 13 24 0.0 0.0 0.00 0.03 0.00 94 1010.0
20260905063012 13 324 0.0 0.0 0.00 0.03 0.00 94 1009.9
20260905061511 13 289 0.0 0.0 0.00 0.03 0.00 93 1009.9
20260905060015 13 289 0.0 0.0 0.00 0.03 0.00 93 1009.9
20260905054509 13 22 0.0 0.0 0.00 0.03 0.00 93 1010.0
20260905053011 13 287 0.0 0.0 0.00 0.03 0.00 93 1010.0
20260905051509 13 297 0.0 0.0 0.00 0.03 0.00 93 1010.0
20260905050008 14 297 0.0 0.0 0.00 0.03 0.00 92 1010.1
20260905044507 14 308 0.0 0.0 0.00 0.03 0.00 92 1010.1
20260905043006 13 308 0.0 0.0 8.81 0.00 0.00 91 1010.1
20260905041505 14 308 0.0 0.0 0.00 0.03 0.00 90 1009.9
20260905040004 14 340 0.0 0.0 0.00 0.03 0.00 90 1009.7
20260905034502 14 240 0.0 0.0 0.00 0.05 0.00 89 1009.7
20260905033006 15 271 0.0 0.0 0.00 0.05 0.00 88 1009.5
20260905031503 15 300 0.0 1.6 0.00 0.05 0.00 87 1009.5
20260905030101 15 302 0.0 0.0 0.00 0.05 0.00 86 1009.4
20260905024600 15 232 0.0 0.0 0.00 0.08 0.00 84 1009.5
20260905023127 16 298 0.0 0.0 0.00 0.08 0.00 83 1009.4
20260905021601 16 313 0.0 1.6 0.00 0.08 0.00 81 1009.4
20260905020104 16 281 0.0 0.0 0.00 0.08 0.00 79 1009.4
20260905014602 17 30 0.0 0.0 0.00 0.08 0.00 76 1009.5
20260905013057 17 57 0.0 0.0 0.00 0.08 0.00 74 1009.5